Marysville, OH

12:01 AM EDT on July 22, 2017 (GMT -0400)
Marysville

Weather History for KMRT - May, 2013

Change the Weather History Date:

Wednesday, May 29, 2013

  Actual Average (KDLZ) Record (KDLZ)
Temperature  
Mean Temperature 76 °F -  
Max Temperature 86 °F 74 °F 92 °F (1941)
Min Temperature 65 °F 52 °F 36 °F (1949)
Cooling Degree Days 10    
Growing Degree Days 26 (Base 50)    
Moisture  
Dew Point 55 °F    
Average Humidity 51    
Maximum Humidity 73    
Minimum Humidity 25    
Precipitation  
Precipitation 0.00 in - - ()
Sea Level Pressure  
Sea Level Pressure 30.05 in    
Wind  
Wind Speed 11 mph (SW)    
Max Wind Speed 21 mph    
Max Gust Speed 28 mph    
Visibility 10 miles    
Events      
Averages and records for this station are not official NWS values.
T = Trace of Precipitation, MM = Missing Value Source: NWS Daily Summary

Daily Weather History Graph

Daily Weather History Graph

Search for Another Location

Airport or City:

Trip Planner

Search our weather history database for the weather conditions in past years. The results will help you decide how hot, cold, wet, or windy it might be!

Date:

Astronomy

May. 29, 2013 Rise Set
Actual Time 6:07 AM EDT 8:54 PM EDT
Civil Twilight 5:35 AM EDT 9:26 PM EDT
Nautical Twilight 4:54 AM EDT 10:07 PM EDT
Astronomical Twilight 4:08 AM EDT 10:53 PM EDT
Moon 12:16 AM EDT (5/29) 11:05 AM EDT (5/29)
Length of Visible Light 15h 51m
Length of Day
14h 47m
Waning Gibbous, 73% of the Moon is Illuminated
May 29
Waning Gibbous
May 31
Last Quarter
Jun 8
New
Jun 16
First Quarter
Jun 23
Full

Hourly Weather History & Observations

Time (EDT) Temp. Heat Index Dew Point Humidity Pressure Visibility Wind Dir Wind Speed Gust Speed Precip Events Conditions
12:14 AM 69.3 °F - 57.6 °F 66% 30.00 in 10.0 mi SW 8.1 mph - N/A   Clear
12:34 AM 69.4 °F - 57.6 °F 66% 30.02 in 10.0 mi SW 8.1 mph - N/A   Clear
12:53 AM 69.4 °F - 57.6 °F 66% 30.01 in 10.0 mi SW 9.2 mph - N/A   Clear
1:14 AM 69.8 °F - 57.2 °F 64% 30.01 in 10.0 mi SW 10.4 mph - N/A   Clear
1:34 AM 68.9 °F - 57.2 °F 66% 30.02 in 10.0 mi SW 8.1 mph - N/A   Clear
1:53 AM 67.3 °F - 57.2 °F 70% 30.02 in 10.0 mi SW 8.1 mph - N/A   Clear
2:14 AM 68.4 °F - 57.2 °F 67% 30.01 in 10.0 mi SW 10.4 mph - N/A   Clear
2:34 AM 68.9 °F - 56.7 °F 65% 30.01 in 10.0 mi SW 10.4 mph - N/A   Clear
2:53 AM 68.4 °F - 56.5 °F 66% 30.01 in 10.0 mi SW 11.5 mph - N/A   Clear
3:14 AM 68.5 °F - 56.3 °F 65% 30.00 in 10.0 mi SW 10.4 mph - N/A   Clear
3:34 AM 68.2 °F - 56.1 °F 65% 30.01 in 10.0 mi SW 10.4 mph - N/A   Clear
3:54 AM 67.3 °F - 55.9 °F 67% 30.00 in 10.0 mi SW 10.4 mph - N/A   Clear
4:14 AM 67.6 °F - 55.8 °F 66% 30.00 in 10.0 mi SW 11.5 mph - N/A   Clear
4:34 AM 67.3 °F - 55.8 °F 66% 30.00 in 10.0 mi SW 8.1 mph - N/A   Clear
4:53 AM 66.6 °F - 55.8 °F 68% 30.01 in 10.0 mi SW 6.9 mph - N/A   Clear
5:14 AM 66.7 °F - 55.8 °F 68% 30.02 in 10.0 mi SW 8.1 mph - N/A   Clear
5:34 AM 67.1 °F - 55.9 °F 67% 30.02 in 10.0 mi SW 8.1 mph - N/A   Clear
5:53 AM 66.4 °F - 56.1 °F 69% 30.03 in 10.0 mi SW 8.1 mph - N/A   Clear
6:14 AM 65.3 °F - 56.3 °F 73% 30.03 in 10.0 mi SW 6.9 mph - N/A   Clear
6:34 AM 66.2 °F - 56.3 °F 70% 30.04 in 10.0 mi SW 9.2 mph - N/A   Clear
6:53 AM 67.3 °F - 56.3 °F 68% 30.05 in 10.0 mi SW 9.2 mph - N/A   Scattered Clouds
7:14 AM 68.0 °F - 56.5 °F 67% 30.05 in 10.0 mi SW 10.4 mph - N/A   Scattered Clouds
7:34 AM 68.5 °F - 56.7 °F 66% 30.06 in 10.0 mi SW 12.7 mph - N/A   Scattered Clouds
7:53 AM 70.0 °F - 56.7 °F 63% 30.05 in 10.0 mi WSW 11.5 mph 17.3 mph N/A   Clear
8:14 AM 70.9 °F - 57.0 °F 61% 30.05 in 10.0 mi WSW 13.8 mph 18.4 mph N/A   Clear
8:34 AM 71.8 °F - 57.0 °F 60% 30.06 in 10.0 mi WSW 13.8 mph 21.9 mph N/A   Clear
8:53 AM 73.9 °F - 57.2 °F 56% 30.06 in 10.0 mi WSW 18.4 mph 23.0 mph N/A   Clear
9:14 AM 74.3 °F - 57.4 °F 55% 30.07 in 10.0 mi WSW 17.3 mph 21.9 mph N/A   Clear
9:34 AM 74.3 °F - 56.8 °F 54% 30.07 in 10.0 mi WSW 15.0 mph - N/A   Clear
9:53 AM 75.6 °F - 57.2 °F 53% 30.07 in 10.0 mi WSW 18.4 mph - N/A   Clear
10:14 AM 78.8 °F - 57.2 °F 47% 30.07 in 10.0 mi WSW 20.7 mph 27.6 mph N/A   Clear
10:34 AM 78.4 °F - 56.7 °F 47% 30.06 in 10.0 mi WSW 19.6 mph 25.3 mph N/A   Clear
10:54 AM 78.3 °F - 56.3 °F 47% 30.06 in 10.0 mi WSW 17.3 mph - N/A   Clear
11:14 AM 79.0 °F - 56.8 °F 46% 30.06 in 10.0 mi West 16.1 mph - N/A   Clear
11:33 AM 79.2 °F - 56.1 °F 45% 30.07 in 10.0 mi WSW 16.1 mph 21.9 mph N/A   Clear
11:54 AM 81.1 °F 81.2 °F 57.2 °F 44% 30.06 in 10.0 mi WSW 19.6 mph - N/A   Clear
12:14 PM 82.9 °F 82.4 °F 56.7 °F 41% 30.06 in 10.0 mi WSW 17.3 mph 25.3 mph N/A   Clear
12:33 PM 83.7 °F 83.0 °F 57.0 °F 40% 30.07 in 10.0 mi WSW 13.8 mph 26.5 mph N/A   Clear
12:54 PM 83.5 °F 82.9 °F 57.4 °F 41% 30.07 in 10.0 mi SW 17.3 mph 24.2 mph N/A   Clear
1:13 PM 84.6 °F 83.7 °F 57.2 °F 39% 30.07 in 10.0 mi WSW 17.3 mph - N/A   Clear
1:34 PM 85.3 °F 84.4 °F 57.6 °F 39% 30.07 in 10.0 mi WSW 16.1 mph 21.9 mph N/A   Clear
1:54 PM 85.3 °F 84.1 °F 56.3 °F 37% 30.07 in 10.0 mi WSW 13.8 mph 23.0 mph N/A   Clear
2:13 PM 84.6 °F 83.5 °F 56.5 °F 38% 30.07 in 10.0 mi West 17.3 mph 25.3 mph N/A   Clear
2:34 PM 85.6 °F 84.3 °F 55.8 °F 36% 30.06 in 10.0 mi WSW 12.7 mph 23.0 mph N/A   Clear
2:54 PM 85.6 °F 84.1 °F 55.0 °F 35% 30.06 in 10.0 mi WSW 16.1 mph - N/A   Clear
3:14 PM 86.2 °F 84.5 °F 55.0 °F 34% 30.07 in 10.0 mi SW 13.8 mph 20.7 mph N/A   Clear
3:33 PM 85.6 °F 84.1 °F 55.0 °F 35% 30.07 in 10.0 mi WSW 13.8 mph 24.2 mph N/A   Scattered Clouds
3:54 PM 86.9 °F - 52.0 °F 30% 30.06 in 10.0 mi WSW 13.8 mph 19.6 mph N/A   Scattered Clouds
4:13 PM 86.4 °F - 51.4 °F 30% 30.06 in 10.0 mi WSW 12.7 mph 19.6 mph N/A   Clear
4:34 PM 86.9 °F - 49.1 °F 27% 30.06 in 10.0 mi WSW 13.8 mph 18.4 mph N/A   Clear
4:54 PM 86.4 °F - 50.9 °F 29% 30.05 in 10.0 mi WSW 9.2 mph 17.3 mph N/A   Clear
5:14 PM 86.9 °F - 47.5 °F 25% 30.05 in 10.0 mi WSW 11.5 mph 20.7 mph N/A   Scattered Clouds
5:34 PM 86.9 °F - 49.6 °F 28% 30.05 in 10.0 mi WSW 15.0 mph 18.4 mph N/A   Clear
5:54 PM 86.0 °F - 48.4 °F 27% 30.05 in 10.0 mi WSW 15.0 mph - N/A   Clear
6:14 PM 86.2 °F - 51.3 °F 30% 30.05 in 10.0 mi WSW 11.5 mph 17.3 mph N/A   Scattered Clouds
6:34 PM 84.0 °F - 51.8 °F 33% 30.05 in 10.0 mi WSW 12.7 mph - N/A   Scattered Clouds
6:54 PM 84.6 °F - 50.7 °F 31% 30.05 in 10.0 mi WSW 13.8 mph - N/A   Clear
7:13 PM 84.0 °F - 50.5 °F 31% 30.05 in 10.0 mi SW 12.7 mph - N/A   Clear
7:34 PM 82.8 °F - 51.3 °F 33% 30.05 in 10.0 mi WSW 11.5 mph - N/A   Clear
7:54 PM 81.5 °F - 50.5 °F 34% 30.06 in 10.0 mi WSW 13.8 mph - N/A   Clear
8:13 PM 79.5 °F - 50.5 °F 36% 30.05 in 10.0 mi SW 8.1 mph - N/A   Clear
8:34 PM 78.3 °F - 50.9 °F 38% 30.05 in 10.0 mi WSW 8.1 mph - N/A   Clear
8:54 PM 74.5 °F - 53.4 °F 48% 30.04 in 10.0 mi SW 5.8 mph - N/A   Clear
9:13 PM 72.7 °F - 54.0 °F 52% 30.04 in 10.0 mi SW 5.8 mph - N/A   Clear
9:34 PM 69.4 °F - 54.7 °F 59% 30.05 in 10.0 mi SW 4.6 mph - N/A   Clear
9:54 PM 70.5 °F - 54.7 °F 57% 30.05 in 10.0 mi SW 3.5 mph - N/A   Clear
10:13 PM 69.3 °F - 54.5 °F 59% 30.06 in 10.0 mi SW 4.6 mph - N/A   Clear
10:34 PM 70.7 °F - 53.6 °F 55% 30.07 in 10.0 mi SW 5.8 mph - N/A   Clear
10:54 PM 68.4 °F - 55.4 °F 63% 30.08 in 10.0 mi SW 5.8 mph - N/A   Clear
11:13 PM 68.5 °F - 55.9 °F 64% 30.09 in 10.0 mi SW 4.6 mph - N/A   Clear
11:34 PM 69.3 °F - 55.9 °F 62% 30.09 in 10.0 mi SW 6.9 mph - N/A   Clear
11:54 PM 70.2 °F - 57.0 °F 63% 30.09 in 10.0 mi SSW 5.8 mph - N/A   Clear